Crosby, ND

4:09 AM CDT on August 21, 2017 (GMT -0500)
Crosby

Weather History for KD50 - January, 2014

Change the Weather History Date:

Friday, January 17, 2014

  Actual Average (KISN) Record (KISN)
Temperature  
Mean Temperature 27 °F -  
Max Temperature 37 °F 22 °F 49 °F (1923)
Min Temperature 17 °F 0 °F -35 °F (1943)
Degree Days  
Heating Degree Days 38    
Moisture  
Dew Point 25 °F    
Average Humidity 90    
Maximum Humidity 100    
Minimum Humidity 75    
Precipitation  
Precipitation 0.00 in - - ()
Sea Level Pressure  
Sea Level Pressure 29.82 in    
Wind  
Wind Speed 12 mph (WSW)    
Max Wind Speed 29 mph    
Max Gust Speed 40 mph    
Visibility 10 miles    
Events      
Averages and records for this station are not official NWS values.
T = Trace of Precipitation, MM = Missing Value Source: NWS Daily Summary

Daily Weather History Graph

Daily Weather History Graph

Search for Another Location

Airport or City:

Trip Planner

Search our weather history database for the weather conditions in past years. The results will help you decide how hot, cold, wet, or windy it might be!

Date:

Astronomy

Jan. 17, 2014 Rise Set
Actual Time 8:39 AM CST 5:27 PM CST
Civil Twilight 8:04 AM CST 6:02 PM CST
Nautical Twilight 7:25 AM CST 6:42 PM CST
Astronomical Twilight 6:47 AM CST 7:19 PM CST
Moon 7:29 PM CST (1/17) 8:57 AM CST (1/17)
Length of Visible Light 9h 58m
Length of Day
8h 47m
Full, 98% of the Moon is Illuminated
Jan 17
Full
Jan 23
Last Quarter
Jan 30
New
Feb 6
First Quarter
Feb 14
Full

Hourly Weather History & Observations

Time (CST) Temp. Windchill Dew Point Humidity Pressure Visibility Wind Dir Wind Speed Gust Speed Precip Events Conditions
12:15 AM 21.2 °F 9.5 °F 17.6 °F 86% 30.08 in 10.0 mi West 11.5 mph - N/A   Unknown
12:35 AM 19.4 °F 7.2 °F 17.6 °F 93% 30.07 in 10.0 mi West 11.5 mph - N/A   Unknown
12:55 AM 21.2 °F 8.9 °F 17.6 °F 86% 30.05 in 10.0 mi West 12.7 mph - N/A   Unknown
1:15 AM 21.2 °F 8.9 °F 17.6 °F 86% 30.04 in 10.0 mi West 12.7 mph - N/A   Unknown
1:35 AM 21.2 °F 10.1 °F 17.6 °F 86% 30.03 in 10.0 mi West 10.4 mph - N/A   Unknown
1:55 AM 21.2 °F 9.5 °F 17.6 °F 86% 30.02 in 10.0 mi West 11.5 mph - N/A   Unknown
2:15 AM 21.2 °F 9.5 °F 17.6 °F 86% 30.01 in 10.0 mi West 11.5 mph - N/A   Unknown
2:35 AM 21.2 °F - 17.6 °F 86% 30.01 in 10.0 mi Calm Calm - N/A   Unknown
2:55 AM 21.2 °F 13.6 °F 15.8 °F 80% 30.01 in 10.0 mi ESE 5.8 mph - N/A   Unknown
3:15 AM 19.4 °F 11.5 °F 15.8 °F 86% 30.00 in 10.0 mi South 5.8 mph - N/A   Unknown
3:35 AM 17.6 °F 8.2 °F 15.8 °F 93% 30.00 in 10.0 mi South 6.9 mph - N/A   Unknown
3:55 AM 17.6 °F 7.3 °F 15.8 °F 93% 29.99 in 10.0 mi SSW 8.1 mph - N/A   Unknown
4:15 AM 17.6 °F 5.7 °F 15.8 °F 93% 29.98 in 10.0 mi SSW 10.4 mph - N/A   Unknown
4:35 AM 17.6 °F 5.7 °F 15.8 °F 93% 29.97 in 10.0 mi South 10.4 mph - N/A   Unknown
4:55 AM 17.6 °F 5.0 °F 15.8 °F 93% 29.97 in 10.0 mi SSW 11.5 mph - N/A   Unknown
5:15 AM 19.4 °F 8.6 °F 17.6 °F 93% 29.97 in 10.0 mi SSW 9.2 mph - N/A   Unknown
5:35 AM 19.4 °F 7.2 °F 17.6 °F 93% 29.95 in 10.0 mi SSW 11.5 mph - N/A   Unknown
5:55 AM 19.4 °F 10.4 °F 17.6 °F 93% 29.94 in 10.0 mi South 6.9 mph - N/A   Unknown
6:15 AM 19.4 °F 12.8 °F 17.6 °F 93% 29.93 in 10.0 mi SSW 4.6 mph - N/A   Unknown
6:35 AM 19.4 °F 14.3 °F 17.6 °F 93% 29.92 in 10.0 mi SW 3.5 mph - N/A   Unknown
6:55 AM 19.4 °F 12.8 °F 17.6 °F 93% 29.91 in 10.0 mi South 4.6 mph - N/A   Unknown
7:15 AM 19.4 °F 11.5 °F 17.6 °F 93% 29.91 in 10.0 mi SSW 5.8 mph - N/A   Unknown
7:35 AM 19.4 °F 11.5 °F 19.4 °F 100% 29.89 in 10.0 mi SSW 5.8 mph - N/A   Unknown
7:55 AM 21.2 °F 10.9 °F 19.4 °F 93% 29.89 in 10.0 mi SSW 9.2 mph - N/A   Unknown
8:15 AM 23.0 °F 14.7 °F 19.4 °F 86% 29.87 in 10.0 mi SSW 6.9 mph - N/A   Unknown
8:35 AM 23.0 °F 15.8 °F 21.2 °F 93% 29.86 in 10.0 mi SSW 5.8 mph - N/A   Unknown
8:55 AM 23.0 °F 17.0 °F 21.2 °F 93% 29.86 in 10.0 mi SSW 4.6 mph - N/A   Unknown
9:15 AM 23.0 °F 15.8 °F 21.2 °F 93% 29.86 in 10.0 mi SSW 5.8 mph - N/A   Unknown
9:35 AM 23.0 °F 12.4 °F 21.2 °F 93% 29.84 in 10.0 mi SSW 10.4 mph - N/A   Unknown
9:55 AM 23.0 °F 12.4 °F 23.0 °F 100% 29.84 in 10.0 mi SSW 10.4 mph - N/A   Unknown
10:15 AM 24.8 °F 14.6 °F 23.0 °F 93% 29.84 in 10.0 mi SW 10.4 mph - N/A   Unknown
10:35 AM 24.8 °F 14.6 °F 23.0 °F 93% 29.84 in 10.0 mi SSW 10.4 mph - N/A   Unknown
10:55 AM 24.8 °F 15.3 °F 23.0 °F 93% 29.84 in 10.0 mi SW 9.2 mph - N/A   Unknown
11:15 AM 26.6 °F 17.5 °F 24.8 °F 93% 29.82 in 10.0 mi SW 9.2 mph - N/A   Unknown
11:35 AM 26.6 °F 16.2 °F 24.8 °F 93% 29.80 in 10.0 mi SSW 11.5 mph - N/A   Unknown
11:55 AM 28.4 °F 17.5 °F 24.8 °F 86% 29.77 in 10.0 mi SSW 13.8 mph - N/A   Unknown
12:15 PM 28.4 °F 17.5 °F 24.8 °F 86% 29.76 in 10.0 mi SW 13.8 mph - N/A   Unknown
12:35 PM 30.2 °F 21.3 °F 26.6 °F 86% 29.74 in 10.0 mi SW 10.4 mph - N/A   Unknown
12:55 PM 32.0 °F 23.6 °F 26.6 °F 80% 29.73 in 10.0 mi SW 10.4 mph - N/A   Unknown
1:15 PM 32.0 °F 24.2 °F 26.6 °F 80% 29.73 in 10.0 mi SW 9.2 mph - N/A   Unknown
1:35 PM 32.0 °F 25.6 °F 28.4 °F 87% 29.71 in 10.0 mi SW 6.9 mph - N/A   Unknown
1:55 PM 35.6 °F 26.6 °F 28.4 °F 75% 29.70 in 10.0 mi West 13.8 mph - N/A   Unknown
2:15 PM 35.6 °F 25.5 °F 30.2 °F 81% 29.70 in 10.0 mi West 17.3 mph 21.9 mph N/A   Unknown
2:35 PM 35.6 °F 25.9 °F 30.2 °F 81% 29.69 in 10.0 mi West 16.1 mph - N/A   Unknown
2:55 PM 35.6 °F 25.9 °F 30.2 °F 81% 29.68 in 10.0 mi West 16.1 mph - N/A   Unknown
3:15 PM 35.6 °F 25.2 °F 32.0 °F 87% 29.67 in 10.0 mi West 18.4 mph 23.0 mph N/A   Unknown
3:35 PM 37.4 °F 27.5 °F 32.0 °F 81% 29.68 in 10.0 mi West 18.4 mph 25.3 mph N/A   Unknown
3:55 PM 37.4 °F 27.8 °F 32.0 °F 81% 29.68 in 10.0 mi West 17.3 mph 23.0 mph N/A   Unknown
4:15 PM 35.6 °F 25.2 °F 32.0 °F 87% 29.68 in 10.0 mi WNW 18.4 mph 23.0 mph N/A   Unknown
4:35 PM 35.6 °F 24.8 °F 32.0 °F 87% 29.68 in 10.0 mi WNW 19.6 mph 26.5 mph N/A   Unknown
4:55 PM 35.6 °F 25.2 °F 32.0 °F 87% 29.69 in 10.0 mi WNW 18.4 mph 25.3 mph N/A   Unknown
5:15 PM 33.8 °F 23.2 °F 32.0 °F 93% 29.69 in 10.0 mi WNW 17.3 mph - N/A   Unknown
5:35 PM 32.0 °F 21.2 °F 32.0 °F 100% 29.69 in 10.0 mi West 16.1 mph - N/A   Unknown
5:55 PM 32.0 °F 20.8 °F 30.2 °F 93% 29.68 in 10.0 mi West 17.3 mph - N/A   Unknown
6:15 PM 32.0 °F 20.8 °F 30.2 °F 93% 29.68 in 10.0 mi West 17.3 mph - N/A   Unknown
6:35 PM 32.0 °F 19.8 °F 30.2 °F 93% 29.68 in 10.0 mi WNW 20.7 mph 26.5 mph N/A   Unknown
6:55 PM 32.0 °F 20.1 °F 30.2 °F 93% 29.69 in 10.0 mi WNW 19.6 mph 24.2 mph N/A   Unknown
7:15 PM 33.8 °F 21.3 °F 30.2 °F 87% 29.69 in 10.0 mi WNW 24.2 mph 28.8 mph N/A   Unknown
7:35 PM 33.8 °F 20.8 °F 32.0 °F 93% 29.68 in 10.0 mi WNW 26.5 mph 34.5 mph N/A   Unknown
7:55 PM 33.8 °F 21.6 °F 30.2 °F 87% 29.68 in 10.0 mi WNW 23.0 mph 33.4 mph N/A   Unknown
8:15 PM 32.0 °F 18.6 °F 30.2 °F 93% 29.69 in 10.0 mi NW 25.3 mph 32.2 mph N/A   Unknown
8:35 PM 32.0 °F 18.1 °F 30.2 °F 93% 29.70 in 10.0 mi NW 27.6 mph 33.4 mph N/A   Unknown
8:55 PM 32.0 °F 18.4 °F 30.2 °F 93% 29.70 in 10.0 mi NW 26.5 mph 34.5 mph N/A   Unknown
9:15 PM 32.0 °F 18.6 °F 32.0 °F 100% 29.70 in 10.0 mi NW 25.3 mph 36.8 mph N/A   Unknown
9:35 PM 33.8 °F 21.3 °F 32.0 °F 93% 29.71 in 10.0 mi NW 24.2 mph 33.4 mph N/A   Unknown
9:55 PM 33.8 °F 21.3 °F 32.0 °F 93% 29.70 in 10.0 mi NW 24.2 mph 33.4 mph N/A   Unknown
10:15 PM 32.0 °F 18.9 °F 32.0 °F 100% 29.70 in 10.0 mi NW 24.2 mph - N/A   Unknown
10:35 PM 32.0 °F 19.5 °F 32.0 °F 100% 29.71 in 10.0 mi NW 21.9 mph 29.9 mph N/A   Unknown
10:55 PM 32.0 °F 18.6 °F 32.0 °F 100% 29.71 in 10.0 mi NW 25.3 mph 31.1 mph N/A   Unknown
11:15 PM 35.6 °F 22.7 °F 32.0 °F 87% 29.72 in 10.0 mi NW 28.8 mph 40.3 mph N/A   Unknown
11:35 PM 35.6 °F 23.0 °F 32.0 °F 87% 29.72 in 10.0 mi NW 27.6 mph 36.8 mph N/A   Unknown
11:55 PM 35.6 °F 23.2 °F 32.0 °F 87% 29.72 in 10.0 mi NW 26.5 mph 39.1 mph N/A   Unknown